Terminal Aerodrome Forecast
Issued by NWS Topeka, KS

Home | Current Version | Previous Version | Text Only | Print | Product List | Glossary Off
Versions: 1 2 3 4 5 6 7 8 9 10 11 12 13 14 15 16 17

000
FTUS43 KTOP 260500
TAFTOP
TAF
KTOP 260520Z 2606/2706 13005KT P6SM BKN100
     FM261500 05007KT P6SM SCT100
     FM261800 13008KT P6SM SCT080=

USA.gov is the U.S. government's official web portal to all federal, state and local government web resources and services.